Baudour Heliport

EBBA · Hainaut, Wallonia, 比利时

METAR的历史 EBBA · Baudour Heliport

下面你可以看到过去几天的METARs。 选择年份以浏览从2007年开始的旧METAR。

2024年7月15日

时间 代码 天气 温度 能见度 天花板 METAR/SPECI
13:55
V
24 °C 10 km+ - 120° 120° 4 kt METAR EBCV 151155Z AUTO 12004KT 9999 FEW140/// 24/13 Q1009 BLU
13:25
V
24 °C 10 km+ - 140° 140° 5 kt METAR EBCV 151125Z AUTO 14005KT 9999 SCT200/// 24/13 Q1009 BLU
12:55
V
24 °C 10 km+ - 140° 140° 6 kt METAR EBCV 151055Z AUTO 14006KT 9999 FEW110/// SCT210/// 24/13 Q1010 BLU
12:25
V
23 °C 10 km+ - 170° 170° 5 kt METAR EBCV 151025Z AUTO 17005KT 9999 FEW120/// 23/13 Q1010 BLU
11:55
V
22 °C 10 km+ - 120° 120° 7 kt METAR EBCV 150955Z AUTO 12007KT 9999 NCD 22/12 Q1010 BLU
11:25
V
22 °C 10 km+ - 120° 120° 6 kt METAR EBCV 150925Z AUTO 12006KT 9999 FEW110/// 22/13 Q1010 BLU
10:55
V
21 °C 10 km+ 21.000 ft 150° 150° 5 kt METAR EBCV 150855Z AUTO 15005KT 9999 FEW100/// SCT150/// BKN210/// 21/14 Q1011 BLU
10:25
V
21 °C 10 km+ - 130° 130° 6 kt METAR EBCV 150825Z AUTO 13006KT 9999 FEW220/// 21/13 Q1011 BLU
09:55
V
20 °C 10 km+ - 150° 150° 5 kt METAR EBCV 150755Z AUTO 15005KT 9999 FEW100/// 20/14 Q1011 BLU
09:25
V
19 °C 10 km+ 15.000 ft 130° 130° 5 kt METAR EBCV 150725Z AUTO 13005KT 9999 FEW110/// BKN150/// BKN220/// 19/13 Q1011 BLU
08:55
V
18 °C 10 km+ 22.000 ft Var Var 2 kt METAR EBCV 150655Z AUTO VRB02KT 9999 FEW100/// SCT130/// BKN220/// 18/13 Q1012 BLU
08:25
V
17 °C 10 km+ 21.000 ft 140° 140° 4 kt METAR EBCV 150625Z AUTO 14004KT 9999 FEW100/// SCT140/// BKN210/// 17/13 Q1012 BLU
07:55
V
16 °C 10 km+ 21.000 ft 150° 150° 3 kt METAR EBCV 150555Z AUTO 15003KT 9999 FEW110/// SCT130/// BKN210/// 16/13 Q1012 BLU
07:25
V
15 °C 10 km+ 15.000 ft 120° 120° 3 kt METAR EBCV 150525Z AUTO 12003KT 9999 FEW100/// SCT130/// BKN150/// 15/12 Q1012 BLU
06:55
V
14 °C 10 km+ 22.000 ft Var Var 1 kt METAR EBCV 150455Z AUTO VRB01KT 9999 FEW100/// SCT130/// BKN220/// 14/12 Q1012 BLU
06:25
V
12 °C 10 km+ 21.000 ft 130° 130° 3 kt METAR EBCV 150425Z AUTO 13003KT 9999 FEW110/// BKN210/// 12/11 Q1012 BLU
05:55
V
11 °C 10 km+ 21.000 ft 120° 120° 3 kt METAR EBCV 150355Z AUTO 12003KT 9999 FEW110/// BKN210/// 11/10 Q1012 BLU
05:25
V
11 °C 10 km+ 22.000 ft Var Var 2 kt METAR EBCV 150325Z AUTO VRB02KT 9999 FEW110/// BKN220/// 11/10 Q1012 BLU
04:55
V
12 °C 10 km+ 22.000 ft 360° 360° 0 kt METAR EBCV 150255Z AUTO 00000KT 9999 FEW110/// BKN220/// 12/11 Q1012 BLU
04:25
V
11 °C 10 km+ 22.000 ft Var Var 1 kt METAR EBCV 150225Z AUTO VRB01KT 9999 FEW110/// BKN220/// 11/10 Q1012 BLU
03:55
V
12 °C 10 km+ 22.000 ft Var Var 2 kt METAR EBCV 150155Z AUTO VRB02KT 9999 FEW110/// SCT150/// BKN220/// 12/11 Q1012 BLU
03:25
V
12 °C 10 km+ 22.000 ft Var Var 1 kt METAR EBCV 150125Z AUTO VRB01KT 9999 FEW110/// BKN220/// 12/11 Q1013 BLU
02:55
V
12 °C 10 km+ 22.000 ft Var Var 1 kt METAR EBCV 150055Z AUTO VRB01KT 9999 FEW110/// SCT150/// BKN220/// 12/11 Q1013 BLU
02:25
V
13 °C 10 km+ 22.000 ft Var Var 1 kt METAR EBCV 150025Z AUTO VRB01KT 9999 FEW110/// BKN220/// 13/11 Q1013 BLU
01:55
V
13 °C 10 km+ 22.000 ft Var Var 1 kt METAR EBCV 142355Z AUTO VRB01KT 9999 FEW110/// SCT150/// BKN220/// 13/11 Q1013 BLU
01:25
V
13 °C 10 km+ 22.000 ft 360° 360° 0 kt METAR EBCV 142325Z AUTO 00000KT 9999 FEW110/// SCT140/// BKN220/// 13/11 Q1013 BLU
00:55
V
15 °C 10 km+ 22.000 ft 180° 180° 4 kt METAR EBCV 142255Z AUTO 18004KT 9999 FEW110/// SCT150/// BKN220/// 15/12 Q1013 BLU
00:25
V
15 °C 10 km+ 22.000 ft 190° 190° 5 kt METAR EBCV 142225Z AUTO 19005KT 9999 FEW110/// BKN220/// 15/12 Q1013 BLU

2024年7月14日

时间 代码 天气 温度 能见度 天花板 METAR/SPECI
23:55
V
15 °C 10 km+ 21.000 ft 190° 190° 4 kt METAR EBCV 142155Z AUTO 19004KT 9999 FEW120/// BKN210/// 15/12 Q1013 BLU
23:25
V
17 °C 10 km+ 22.000 ft 180° 180° 5 kt METAR EBCV 142125Z AUTO 18005KT 9999 FEW110/// BKN220/// 17/13 Q1013 BLU
22:55
V
16 °C 10 km+ 22.000 ft 190° 190° 4 kt METAR EBCV 142055Z AUTO 19004KT 9999 FEW120/// BKN220/// 16/13 Q1013 BLU
22:25
V
17 °C 10 km+ 22.000 ft 190° 190° 3 kt METAR EBCV 142025Z AUTO 19003KT 9999 FEW049/// SCT120/// BKN220/// 17/14 Q1013 BLU
21:55
V
18 °C 10 km+ 11.000 ft Var Var 2 kt METAR EBCV 141955Z AUTO VRB02KT 9999 SCT048/// BKN110/// BKN220/// 18/14 Q1013 BLU
21:25
V
19 °C 10 km+ 14.000 ft Var Var 2 kt METAR EBCV 141925Z AUTO VRB02KT 9999 FEW110/// BKN140/// BKN220/// 19/14 Q1013 BLU
20:55
V
20 °C 10 km+ 4.800 ft 200° 200° 3 kt METAR EBCV 141855Z AUTO 20003KT 9999 BKN048/// BKN110/// 20/13 Q1012 BLU
20:25
V
21 °C 10 km+ 7.000 ft Var Var 2 kt METAR EBCV 141825Z AUTO VRB02KT 9999 SCT048/// BKN070/// BKN110/// 21/13 Q1012 BLU
19:55
V
22 °C 10 km+ 15.000 ft 230° 230° 3 kt METAR EBCV 141755Z AUTO 23003KT 9999 FEW100/// BKN150/// BKN220/// 22/11 Q1012 BLU
19:25
V
22 °C 10 km+ 15.000 ft 260° 260° 5 kt METAR EBCV 141725Z AUTO 26005KT 9999 FEW050/// BKN150/// 22/12 Q1012 BLU
18:55
V
22 °C 10 km+ 17.000 ft 270° 270° 4 kt METAR EBCV 141655Z AUTO 27004KT 9999 FEW065/// SCT130/// BKN170/// 22/12 Q1012 BLU
18:25
V
21 °C 10 km+ 7.000 ft 260° 260° 3 kt METAR EBCV 141625Z AUTO 26003KT 9999 SCT055/// BKN070/// BKN170/// 21/11 Q1013 BLU
17:55
V
21 °C 10 km+ 17.000 ft 250° 250° 3 kt METAR EBCV 141555Z AUTO 25003KT 9999 BKN170/// 21/12 Q1012 BLU
17:25
V
21 °C 10 km+ 18.000 ft 260° 260° 5 kt METAR EBCV 141525Z AUTO 26005KT 9999 BKN180/// 21/11 Q1012 BLU
16:55
V
21 °C 10 km+ 20.000 ft 250° 250° 6 kt METAR EBCV 141455Z AUTO 25006KT 9999 FEW070/// BKN200/// 21/11 Q1013 BLU
16:25
V
22 °C 10 km+ 18.000 ft 250° 250° 5 kt METAR EBCV 141425Z AUTO 25005KT 9999 BKN180/// 22/11 Q1013 BLU
15:55
V
21 °C 10 km+ 19.000 ft 260° 260° 6 kt METAR EBCV 141355Z AUTO 26006KT 9999 BKN190/// 21/12 Q1013 BLU
15:25
V
21 °C 10 km+ 20.000 ft 260° 260° 8 kt METAR EBCV 141325Z AUTO 26008KT 9999 FEW060/// BKN200/// 21/11 Q1013 BLU
14:55
V
21 °C 10 km+ 20.000 ft 250° 250° 8 kt METAR EBCV 141255Z AUTO 25008KT 9999 SCT049/// BKN200/// 21/11 Q1013 BLU
14:25
V
22 °C 10 km+ - 230° 230° 9 kt METAR EBCV 141225Z AUTO 23009KT 9999 FEW049/// 22/11 Q1013 BLU
13:55
V
22 °C 10 km+ - 250° 250° 7 kt METAR EBCV 141155Z AUTO 25007KT 9999 FEW043/// 22/12 Q1013 BLU
13:25
V
21 °C 10 km+ - 260° 260° 7 kt METAR EBCV 141125Z AUTO 26007KT 9999 FEW041/// 21/12 Q1013 BLU
12:55
V
20 °C 10 km+ - 250° 250° 6 kt METAR EBCV 141055Z AUTO 25006KT 9999 FEW044/// SCT150/// 20/12 Q1013 BLU
12:25
V
20 °C 10 km+ - 240° 240° 7 kt METAR EBCV 141025Z AUTO 24007KT 9999 FEW035/// SCT220/// 20/12 Q1013 BLU
11:55
V
19 °C 10 km+ - 230° 230° 7 kt METAR EBCV 140955Z AUTO 23007KT 9999 FEW032/// SCT150/// 19/12 Q1013 BLU
11:25
V
19 °C 10 km+ 22.000 ft 240° 240° 6 kt METAR EBCV 140925Z AUTO 24006KT 9999 FEW110/// SCT150/// BKN220/// 19/12 Q1013 BLU
10:55
V
18 °C 10 km+ 22.000 ft 220° 220° 6 kt METAR EBCV 140855Z AUTO 22006KT 9999 FEW110/// SCT150/// BKN220/// 18/12 Q1013 BLU
10:25
V
18 °C 10 km+ 21.000 ft 210° 210° 6 kt METAR EBCV 140825Z AUTO 21006KT 9999 FEW110/// SCT150/// BKN210/// 18/12 Q1013 BLU
09:55
V
17 °C 10 km+ 22.000 ft 210° 210° 5 kt METAR EBCV 140755Z AUTO 21005KT 9999 FEW120/// SCT150/// BKN220/// 17/11 Q1013 BLU
09:25
V
17 °C 10 km+ 21.000 ft 220° 220° 5 kt METAR EBCV 140725Z AUTO 22005KT 9999 FEW120/// BKN210/// 17/12 Q1013 BLU
08:55
V
16 °C 10 km+ 22.000 ft 220° 220° 5 kt METAR EBCV 140655Z AUTO 22005KT 9999 FEW120/// BKN220/// 16/11 Q1013 BLU
08:25
V
16 °C 10 km+ 21.000 ft 190° 190° 4 kt METAR EBCV 140625Z AUTO 19004KT 9999 FEW110/// BKN210/// 16/14 Q1013 BLU
07:55
V
15 °C 10 km+ 22.000 ft 180° 180° 5 kt METAR EBCV 140555Z AUTO 18005KT 9999 FEW110/// BKN220/// 15/13 Q1013 BLU
07:25
V
13 °C 10 km+ 22.000 ft 180° 180° 4 kt METAR EBCV 140525Z AUTO 18004KT 9999 FEW110/// BKN220/// 13/13 Q1013 BLU
06:55
V
12 °C 10 km+ 22.000 ft 190° 190° 3 kt METAR EBCV 140455Z AUTO 19003KT 9999 FEW029/// SCT150/// BKN220/// 12/12 Q1013 BLU
06:25
V
12 °C 10 km+ 22.000 ft Var Var 2 kt METAR EBCV 140425Z AUTO VRB02KT 9999 FEW120/// BKN220/// 12/11 Q1013 BLU
05:55
V
12 °C 10 km+ 22.000 ft 180° 180° 3 kt METAR EBCV 140355Z AUTO 18003KT 9999 FEW100/// SCT150/// BKN220/// 12/11 Q1013 BLU
05:25
V
12 °C 10 km+ 11.000 ft 180° 180° 3 kt METAR EBCV 140325Z AUTO 18003KT 9999 BKN110/// OVC130/// 12/11 Q1013 BLU
04:55
V
12 °C 10 km+ 12.000 ft 200° 200° 3 kt METAR EBCV 140255Z AUTO 20003KT 9999 BKN120/// 12/12 Q1012 BLU
04:25
V
13 °C 10 km+ 12.000 ft Var Var 2 kt METAR EBCV 140225Z AUTO VRB02KT 9999 BKN120/// BKN220/// 13/12 Q1012 BLU
03:55
V
13 °C 10 km+ 11.000 ft 240° 240° 3 kt METAR EBCV 140155Z AUTO 24003KT 9999 FEW085/// SCT100/// BKN110/// 13/12 Q1013 BLU
03:25
V
13 °C 10 km+ 12.000 ft Var Var 2 kt METAR EBCV 140125Z AUTO VRB02KT 9999 FEW085/// SCT100/// BKN120/// 13/12 Q1013 BLU
02:55
V
13 °C 10 km+ 12.000 ft 200° 200° 4 kt METAR EBCV 140055Z AUTO 20004KT 9999 FEW085/// SCT100/// BKN120/// 13/12 Q1013 BLU
02:25
V
13 °C 10 km+ 14.000 ft 190° 190° 4 kt METAR EBCV 140025Z AUTO 19004KT 9999 FEW090/// BKN140/// 13/12 Q1013 BLU
01:55
V
13 °C 10 km+ 14.000 ft 190° 190° 4 kt METAR EBCV 132355Z AUTO 19004KT 9999 FEW100/// SCT130/// BKN140/// 13/12 Q1013 BLU
01:25
V
13 °C 10 km+ 14.000 ft 190° 190° 4 kt METAR EBCV 132325Z AUTO 19004KT 9999 FEW120/// BKN140/// 13/12 Q1013 BLU
00:55
V
14 °C 10 km+ 14.000 ft Var Var 1 kt METAR EBCV 132255Z AUTO VRB01KT 9999 BKN140/// 14/13 Q1013 BLU
00:25
V
14 °C 10 km+ 15.000 ft Var Var 1 kt METAR EBCV 132225Z AUTO VRB01KT 9999 BKN150/// 14/12 Q1013 BLU

2024年7月13日

时间 代码 天气 温度 能见度 天花板 METAR/SPECI
23:55
V
13 °C 10 km+ 15.000 ft Var Var 2 kt METAR EBCV 132155Z AUTO VRB02KT 9999 FEW055/// BKN150/// 13/12 Q1013 BLU
23:25
V
14 °C 10 km+ 12.000 ft 360° 360° 0 kt METAR EBCV 132125Z AUTO 00000KT 9999 SCT049/// BKN120/// BKN220/// 14/13 Q1013 BLU
22:55
V
14 °C 10 km+ 15.000 ft Var Var 2 kt METAR EBCV 132055Z AUTO VRB02KT 9999 SCT046/// BKN150/// 14/12 Q1013 BLU
22:25
V
14 °C 10 km+ 15.000 ft Var Var 1 kt METAR EBCV 132025Z AUTO VRB01KT 9999 FEW110/// SCT130/// BKN150/// 14/12 Q1013 BLU
21:55
V
16 °C 10 km+ 21.000 ft Var Var 2 kt METAR EBCV 131955Z AUTO VRB02KT 9999 FEW120/// BKN210/// 16/11 Q1013 BLU
21:25
V
17 °C 10 km+ 15.000 ft Var Var 2 kt METAR EBCV 131925Z AUTO VRB02KT 9999 BKN150/// BKN220/// 17/12 Q1013 BLU
20:55
V
18 °C 10 km+ 15.000 ft Var Var 2 kt METAR EBCV 131855Z AUTO VRB02KT 9999 FEW100/// BKN150/// BKN220/// 18/12 Q1013 BLU
20:25
V
18 °C 10 km+ 21.000 ft 320° 320° 5 kt METAR EBCV 131825Z AUTO 32005KT 9999 FEW110/// SCT150/// BKN210/// 18/11 Q1013 BLU
19:55
V
19 °C 10 km+ 15.000 ft 320° 320° 5 kt METAR EBCV 131755Z AUTO 32005KT 9999 BKN150/// 19/11 Q1013 BLU
19:25
V
19 °C 10 km+ 15.000 ft 310° 310° 6 kt METAR EBCV 131725Z AUTO 31006KT 9999 BKN150/// 19/10 Q1013 BLU
18:55
V
19 °C 10 km+ 7.500 ft 310° 310° 5 kt METAR EBCV 131655Z AUTO 31005KT 9999 SCT045/// BKN075/// 19/11 Q1013 BLU
18:25
V
19 °C 10 km+ - 300° 300° 6 kt METAR EBCV 131625Z AUTO 30006KT 9999 SCT047/// 19/11 Q1013 BLU
17:55
V
19 °C 10 km+ - 290° 290° 7 kt METAR EBCV 131555Z AUTO 29007KT 9999 FEW043/// 19/11 Q1013 BLU
17:25
V
20 °C 10 km+ - 260° 260° 9 kt METAR EBCV 131525Z AUTO 26009KT 9999 FEW042/// 20/10 Q1013 BLU
16:55
V
20 °C 10 km+ - 260° 260° 10 - 20 kt METAR EBCV 131455Z AUTO 26010G20KT 9999 /// 20/10 Q1013 BLU
16:25
V
20 °C 10 km+ - 280° 280° 6 kt METAR EBCV 131425Z AUTO 28006KT 9999 /// 20/12 Q1013 BLU
15:55
V
19 °C 10 km+ - 280° 280° 8 kt METAR EBCV 131355Z AUTO 28008KT 9999 /// 19/11 Q1013 BLU
15:25
V
19 °C 10 km+ - 280° 280° 10 kt METAR EBCV 131325Z AUTO 28010KT 9999 /// 19/11 Q1013 BLU
14:55
V
19 °C 10 km+ 7.500 ft 290° 290° 8 kt METAR EBCV 131255Z AUTO 29008KT 9999 FEW032/// SCT049/// BKN075/// 19/12 Q1013 BLU
14:25
V
19 °C 10 km+ - 230° 230° 10 kt METAR EBCV 131225Z AUTO 23010KT 9999 /// 19/11 Q1013 BLU
13:55
V
18 °C 10 km+ - 230° 230° 10 kt METAR EBCV 131155Z AUTO 23010KT 9999 /// 18/11 Q1014 BLU
13:25
V
18 °C 10 km+ - 230° 230° 10 kt METAR EBCV 131125Z AUTO 23010KT 9999 /// 18/11 Q1014 BLU
12:55
V
17 °C 10 km+ - 250° 250° 10 kt METAR EBCV 131055Z AUTO 25010KT 9999 /// 17/11 Q1014 BLU
12:25
V
18 °C 10 km+ - 250° 250° 10 kt METAR EBCV 131025Z AUTO 25010KT 9999 /// 18/11 Q1014 BLU
11:55
V
17 °C 10 km+ - 240° 240° 9 kt METAR EBCV 130955Z AUTO 24009KT 9999 /// 17/11 Q1013 BLU
11:25
V
17 °C 10 km+ - 250° 250° 9 kt METAR EBCV 130925Z AUTO 25009KT 9999 /// 17/11 Q1014 BLU
10:55
V
16 °C 10 km+ - 250° 250° 9 kt METAR EBCV 130855Z AUTO 25009KT 9999 /// 16/11 Q1014 BLU
10:43
V
16 °C 10 km+ - 250° 250° 9 kt SPECI EBCV 130843Z AUTO 25009KT 9999 /// 16/12 Q1014 BLU
10:25
M
15 °C 10 km+ 3.000 ft 250° 250° 9 kt METAR EBCV 130825Z AUTO 25009KT 9999 FEW016/// SCT024/// BKN030/// 15/12 Q1014 WHT
10:13
V
15 °C 10 km+ - 250° 250° 8 kt SPECI EBCV 130813Z AUTO 25008KT 9999 /// 15/11 Q1014 BLU
09:55
V
15 °C 10 km+ - 250° 250° 7 kt METAR EBCV 130755Z AUTO 25007KT 9999 SCT014/// 15/11 Q1014 GRN
09:47
M
15 °C 10 km+ 1.800 ft 260° 260° 7 kt SPECI EBCV 130747Z AUTO 26007KT 9999 SCT014/// BKN018/// 15/12 Q1014 GRN
09:25
V
14 °C 10 km+ - 250° 250° 7 kt METAR EBCV 130725Z AUTO 25007KT 9999 /// 14/12 Q1014 BLU
08:55
V
14 °C 10 km+ - 260° 260° 8 kt METAR EBCV 130655Z AUTO 26008KT 9999 /// 14/11 Q1014 BLU
08:25
V
13 °C 10 km+ - 240° 240° 8 kt METAR EBCV 130625Z AUTO 24008KT 9999 /// 13/11 Q1014 BLU
07:55
V
13 °C 10 km+ - 240° 240° 6 kt METAR EBCV 130555Z AUTO 24006KT 9999 /// 13/11 Q1014 BLU
报告变更